This is the latest recevied weather packets stored in our database for station/object KC3UTO. If no packets are shown the sender has not sent any weather packets the latest 10 day(s).
| Time | Temp. | Humidity | Pressure | Rain* | Wind** | Luminosity | Snow |
|---|---|---|---|---|---|---|---|
| 1776879523 | 13.89° C | 71% | 1015.8 hPa | 0 mm | - | 340 W/m² | - |
| 1776879219 | 13.89° C | 73% | 1015.7 hPa | 0 mm | - | 414 W/m² | - |
| 1776878916 | 13.89° C | 71% | 1015.9 hPa | 0 mm | - | 443 W/m² | - |
| 1776878613 | 13.89° C | 72% | 1015.9 hPa | 0 mm | - | 415 W/m² | - |
| 1776878309 | 13.33° C | 74% | 1015.8 hPa | 0 mm | - | 423 W/m² | - |
| 1776878005 | 12.78° C | 74% | 1015.9 hPa | 0 mm | - | 399 W/m² | - |
| 1776877701 | 12.78° C | 75% | 1016.1 hPa | 0 mm | - | 261 W/m² | - |
| 1776877397 | 12.78° C | 73% | 1016 hPa | 0 mm | - | 304 W/m² | - |
| 1776877096 | 12.78° C | 76% | 1016.1 hPa | 0 mm | - | 321 W/m² | - |
| 1776876793 | 12.22° C | 74% | 1016 hPa | 0 mm | - | 291 W/m² | - |
| 1776876490 | 12.22° C | 75% | 1016 hPa | 0 mm | - | 249 W/m² | - |
| 1776876187 | 12.22° C | 76% | 1016.1 hPa | 0 mm | - | 241 W/m² | - |
| 1776875883 | 11.67° C | 78% | 1016.2 hPa | 0 mm | - | 178 W/m² | - |
| 1776875580 | 11.67° C | 79% | 1016.2 hPa | 0 mm | - | 174 W/m² | - |
| 1776875276 | 11.67° C | 78% | 1016.3 hPa | 0 mm | - | 183 W/m² | - |
| 1776874972 | 11.67° C | 76% | 1016.7 hPa | 0 mm | - | 193 W/m² | - |
| 1776874669 | 11.67° C | 79% | 1016.6 hPa | 0 mm | - | 185 W/m² | - |
| 1776874366 | 11.67° C | 77% | 1016.6 hPa | 0 mm | - | 189 W/m² | - |
| 1776874065 | 11.67° C | 76% | 1016.8 hPa | 0 mm | - | 171 W/m² | - |
| 1776873761 | 11.67° C | 77% | 1016.7 hPa | 0 mm | - | 177 W/m² | - |
| 1776873457 | 11.67° C | 78% | 1016.7 hPa | 0 mm | - | 197 W/m² | - |
| 1776873153 | 11.67° C | 78% | 1016.7 hPa | 0 mm | - | 289 W/m² | - |
| 1776872850 | 11.67° C | 79% | 1017 hPa | 0 mm | - | 289 W/m² | - |
* Rain latest hour (hover to see other rain measurements)
** Current wind speed in m/s (hover to see current wind gust speed)